• In Uzbekistan
  • List of Countries
  • For 7 days
  • Water Temperature
  • Satellite Maps
  • Weather Map
  • Weather Widgets
  • user-avatar
    Login

    Hourly Weather Sidi Bu-l-Abbas

    Today, 28 March, Tuesday

    Time Temperature Precipitation Wind Pressure Humidity
    00:00 +7°C° 0 mm 0 mps 724 mmHg 89%
    01:00 +7°C° 0 mm 0 mps 724 mmHg 88%
    02:00 +8°C° 0 mm 1 mps 724 mmHg 88%
    03:00 +8°C° 0 mm 1 mps 724 mmHg 88%
    04:00 +8°C° 0 mm 1 mps 724 mmHg 88%
    05:00 +8°C° 0 mm 1 mps 725 mmHg 87%
    06:00 +8°C° 0 mm 1 mps 725 mmHg 87%
    07:00 +10°C° 0 mm 1 mps 725 mmHg 75%
    08:00 +13°C° 0 mm 1 mps 726 mmHg 62%
    09:00 +16°C° 0 mm 1 mps 727 mmHg 49%
    10:00 +17°C° 0 mm 2 mps 727 mmHg 46%
    11:00 +18°C° 0 mm 3 mps 727 mmHg 43%
    12:00 +19°C° 0 mm 3 mps 727 mmHg 39%
    13:00 +19°C° 0 mm 3 mps 727 mmHg 41%
    14:00 +20°C° 0 mm 4 mps 727 mmHg 42%
    15:00 +20°C° 0 mm 4 mps 726 mmHg 44%
    16:00 +18°C° 0 mm 3 mps 726 mmHg 52%
    17:00 +16°C° 0 mm 3 mps 726 mmHg 60%
    18:00 +15°C° 0 mm 2 mps 726 mmHg 68%
    19:00 +13°C° 0 mm 2 mps 727 mmHg 75%
    20:00 +11°C° 0 mm 1 mps 727 mmHg 82%
    21:00 +9°C° 0 mm 1 mps 727 mmHg 89%
    22:00 +9°C° 0 mm 1 mps 727 mmHg 89%
    23:00 +8°C° 0 mm 1 mps 727 mmHg 89%

    Tomorrow, 29 March, Wednesday

    Time Temperature Precipitation Wind Pressure Humidity
    00:00 +8°C° 0 mm 1 mps 727 mmHg 88%
    01:00 +8°C° 0 mm 1 mps 727 mmHg 88%
    02:00 +7°C° 0 mm 1 mps 726 mmHg 87%
    03:00 +7°C° 0 mm 1 mps 726 mmHg 86%
    04:00 +7°C° 0 mm 1 mps 726 mmHg 86%
    05:00 +7°C° 0 mm 1 mps 726 mmHg 85%
    06:00 +6°C° 0 mm 1 mps 726 mmHg 85%
    07:00 +10°C° 0 mm 1 mps 727 mmHg 70%
    08:00 +14°C° 0 mm 1 mps 727 mmHg 56%
    09:00 +19°C° 0 mm 1 mps 728 mmHg 41%
    10:00 +19°C° 0 mm 2 mps 728 mmHg 37%
    11:00 +20°C° 0 mm 3 mps 728 mmHg 32%
    12:00 +22°C° 0 mm 3 mps 728 mmHg 27%
    13:00 +22°C° 0 mm 4 mps 727 mmHg 27%
    14:00 +22°C° 0 mm 4 mps 726 mmHg 28%
    15:00 +22°C° 0 mm 4 mps 726 mmHg 28%
    16:00 +20°C° 0 mm 4 mps 726 mmHg 35%
    17:00 +19°C° 0 mm 4 mps 725 mmHg 42%
    18:00 +17°C° 0 mm 3 mps 725 mmHg 49%
    19:00 +14°C° 0 mm 3 mps 725 mmHg 56%
    20:00 +12°C° 0 mm 3 mps 726 mmHg 64%
    21:00 +10°C° 0 mm 2 mps 726 mmHg 72%
    22:00 +10°C° 0 mm 2 mps 726 mmHg 71%
    23:00 +9°C° 0 mm 2 mps 726 mmHg 70%

    Day after tomorrow, 30 March, Thursday

    Time Temperature Precipitation Wind Pressure Humidity
    00:00 +9°C° 0 mm 2 mps 726 mmHg 69%
    01:00 +9°C° 0 mm 2 mps 725 mmHg 67%
    02:00 +9°C° 0 mm 2 mps 725 mmHg 64%
    03:00 +9°C° 0 mm 2 mps 725 mmHg 62%
    04:00 +9°C° 0 mm 2 mps 725 mmHg 61%
    05:00 +9°C° 0 mm 2 mps 725 mmHg 59%
    06:00 +9°C° 0 mm 2 mps 725 mmHg 58%
    07:00 +13°C° 0 mm 2 mps 725 mmHg 48%
    08:00 +17°C° 0 mm 2 mps 726 mmHg 39%
    09:00 +20°C° 0 mm 2 mps 726 mmHg 29%
    10:00 +23°C° 0 mm 2 mps 726 mmHg 26%
    11:00 +25°C° 0 mm 2 mps 726 mmHg 23%
    12:00 +27°C° 0 mm 2 mps 725 mmHg 19%
    13:00 +27°C° 0 mm 3 mps 725 mmHg 20%
    14:00 +27°C° 0 mm 3 mps 724 mmHg 21%
    15:00 +27°C° 0 mm 3 mps 724 mmHg 22%
    16:00 +25°C° 0 mm 3 mps 724 mmHg 30%
    17:00 +21°C° 0 mm 3 mps 723 mmHg 37%
    18:00 +19°C° 0 mm 2 mps 723 mmHg 45%
    19:00 +17°C° 0 mm 2 mps 723 mmHg 50%
    20:00 +15°C° 0 mm 1 mps 723 mmHg 55%
    21:00 +13°C° 0 mm 1 mps 724 mmHg 61%
    22:00 +13°C° 0 mm 1 mps 724 mmHg 60%
    23:00 +13°C° 0 mm 1 mps 723 mmHg 59%

    31 March, Friday

    Time Temperature Precipitation Wind Pressure Humidity
    00:00 +13°C° 0 mm 1 mps 723 mmHg 58%
    01:00 +13°C° 0 mm 1 mps 723 mmHg 58%
    02:00 +13°C° 0 mm 2 mps 723 mmHg 58%
    03:00 +12°C° 0 mm 2 mps 722 mmHg 58%
    04:00 +12°C° 0 mm 2 mps 722 mmHg 55%
    05:00 +12°C° 0 mm 2 mps 723 mmHg 53%
    06:00 +12°C° 0 mm 2 mps 723 mmHg 50%
    07:00 +15°C° 0 mm 2 mps 723 mmHg 45%
    08:00 +18°C° 0 mm 2 mps 724 mmHg 40%
    09:00 +20°C° 0 mm 2 mps 724 mmHg 34%
    10:00 +21°C° 0 mm 2 mps 724 mmHg 34%
    11:00 +21°C° 0 mm 2 mps 724 mmHg 34%
    12:00 +23°C° 0 mm 2 mps 724 mmHg 33%
    13:00 +23°C° 0.1 mm 2 mps 724 mmHg 35%
    14:00 +22°C° 0.1 mm 3 mps 724 mmHg 37%
    15:00 +22°C° 0.1 mm 3 mps 723 mmHg 39%
    16:00 +20°C° 0.1 mm 3 mps 723 mmHg 46%
    17:00 +19°C° 0.1 mm 2 mps 723 mmHg 54%
    18:00 +17°C° 0.1 mm 2 mps 723 mmHg 61%
    19:00 +16°C° 0 mm 3 mps 723 mmHg 62%
    20:00 +14°C° 0 mm 3 mps 723 mmHg 63%
    21:00 +12°C° 0 mm 3 mps 723 mmHg 65%
    22:00 +12°C° 0 mm 3 mps 723 mmHg 64%
    23:00 +12°C° 0 mm 3 mps 723 mmHg 64%

    1 April, Saturday

    Time Temperature Precipitation Wind Pressure Humidity
    00:00 +12°C° 0 mm 3 mps 723 mmHg 64%
    01:00 +11°C° 0 mm 3 mps 723 mmHg 66%
    02:00 +11°C° 0 mm 3 mps 722 mmHg 69%
    03:00 +10°C° 0 mm 3 mps 722 mmHg 72%
    04:00 +10°C° 0 mm 3 mps 722 mmHg 76%
    05:00 +10°C° 0 mm 3 mps 722 mmHg 79%
    06:00 +10°C° 0 mm 3 mps 722 mmHg 83%
    07:00 +12°C° 0 mm 5 mps 722 mmHg 73%
    08:00 +14°C° 0 mm 7 mps 723 mmHg 64%
    09:00 +16°C° 0 mm 8 mps 723 mmHg 54%
    10:00 +16°C° 0 mm 9 mps 723 mmHg 51%
    11:00 +17°C° 0 mm 9 mps 723 mmHg 47%
    12:00 +18°C° 0 mm 10 mps 723 mmHg 44%
    13:00 +18°C° 0 mm 9 mps 722 mmHg 44%
    14:00 +17°C° 0 mm 8 mps 722 mmHg 44%
    15:00 +17°C° 0 mm 8 mps 722 mmHg 45%
    16:00 +16°C° 0 mm 6 mps 722 mmHg 50%
    17:00 +15°C° 0 mm 5 mps 722 mmHg 55%
    18:00 +14°C° 0 mm 4 mps 722 mmHg 61%
    19:00 +12°C° 0 mm 4 mps 722 mmHg 68%
    20:00 +11°C° 0 mm 3 mps 722 mmHg 75%
    21:00 +9°C° 0 mm 3 mps 723 mmHg 82%
    22:00 +9°C° 0 mm 3 mps 722 mmHg 83%
    23:00 +9°C° 0 mm 3 mps 722 mmHg 83%

    2 April, Sunday

    Time Temperature Precipitation Wind Pressure Humidity
    00:00 +9°C° 0 mm 3 mps 722 mmHg 84%
    01:00 +9°C° 0 mm 3 mps 722 mmHg 86%
    02:00 +9°C° 0 mm 3 mps 721 mmHg 87%
    03:00 +9°C° 0 mm 3 mps 721 mmHg 89%
    04:00 +8°C° 0 mm 3 mps 721 mmHg 89%
    05:00 +8°C° 0 mm 2 mps 721 mmHg 89%
    06:00 +8°C° 0 mm 2 mps 721 mmHg 89%
    07:00 +12°C° 0 mm 2 mps 722 mmHg 75%
    08:00 +14°C° 0 mm 2 mps 722 mmHg 61%
    09:00 +17°C° 0 mm 2 mps 722 mmHg 46%
    10:00 +18°C° 0 mm 2 mps 722 mmHg 42%
    11:00 +19°C° 0 mm 3 mps 722 mmHg 38%
    12:00 +20°C° 0 mm 3 mps 722 mmHg 33%
    13:00 +20°C° 0 mm 4 mps 722 mmHg 33%
    14:00 +20°C° 0 mm 4 mps 721 mmHg 34%
    15:00 +20°C° 0 mm 5 mps 721 mmHg 34%
    16:00 +19°C° 0 mm 4 mps 721 mmHg 38%
    17:00 +17°C° 0 mm 4 mps 721 mmHg 41%
    18:00 +16°C° 0 mm 3 mps 721 mmHg 45%
    19:00 +13°C° 0 mm 3 mps 721 mmHg 50%
    20:00 +12°C° 0 mm 2 mps 721 mmHg 55%
    21:00 +9°C° 0 mm 2 mps 722 mmHg 59%
    22:00 +8°C° 0 mm 2 mps 721 mmHg 60%
    23:00 +8°C° 0 mm 2 mps 721 mmHg 61%
    Show more